Weather History for ETIC - May, 2013

Change the Weather History Date:

Monday, May 27, 2013

  Actual Average Record
Temperature  
Mean Temperature 45 °F -  
Max Temperature 48 °F - - ()
Min Temperature 42 °F - - ()
Degree Days  
Heating Degree Days 20    
Moisture  
Dew Point 44 °F    
Average Humidity 93    
Maximum Humidity 100    
Minimum Humidity 87    
Precipitation  
Precipitation 0.34 in - - ()
Sea Level Pressure  
Sea Level Pressure 29.79 in    
Wind  
Wind Speed 6 mph ()    
Max Wind Speed 12 mph    
Max Gust Speed 20 mph    
Visibility 6.1 miles    
Events Rain    
T = Trace of Precipitation, MM = Missing Value Source: Averaged Metar Reports

Daily Weather History Graph

Daily Weather History Graph

Search for Another Location

Airport or City:

Trip Planner

Search our weather history database for the weather conditions in past years. The results will help you decide how hot, cold, wet, or windy it might be!

Date:

Astronomy

May. 27, 2013 Rise Set
Actual Time 5:13 AM CEST 9:05 PM CEST
Civil Twilight 4:32 AM CEST 9:47 PM CEST
Nautical Twilight 3:35 AM CEST 10:45 PM CEST
Astronomical Twilight 2:03 AM CEST 12:19 AM CEST
Moon 11:25 PM CEST (5/27) 7:34 AM CEST (5/27)
Length of Visible Light 17h 15m
Length of Day
15h 52m
Waning Gibbous, 93% of the Moon is Illuminated
May 27
Waning Gibbous
May 31
Last Quarter
Jun 8
New
Jun 16
First Quarter
Jun 23
Full

Hourly Weather History & Observations

Time (CEST) Temp. Windchill Dew Point Humidity Pressure Visibility Wind Dir Wind Speed Gust Speed Precip Events Conditions
12:52 AM 44.6 °F 40.2 °F 44.6 °F 100% 29.69 in 6.2 mi WSW 8.1 mph - N/A Rain Light Rain
12:58 AM 45.3 °F 41.6 °F 43.9 °F 95% 29.73 in 6.2 mi Variable 6.9 mph - 0.03 in Rain Light Rain
1:07 AM 44.6 °F 40.2 °F 44.6 °F 100% 29.69 in 6.2 mi WSW 8.1 mph - N/A Rain Light Rain
1:58 AM 45.3 °F 41.1 °F 44.1 °F 95% 29.73 in 6.2 mi West 8.1 mph - 0.02 in Rain Light Rain
2:58 AM 45.1 °F 39.5 °F 43.5 °F 94% 29.73 in 6.2 mi West 11.5 mph 19.6 mph 0.01 in   Light Drizzle
3:58 AM 43.9 °F 38.3 °F 42.1 °F 93% 29.73 in 6.2 mi WSW 10.4 mph 17.3 mph 0.01 in Rain Light Rain
4:12 AM 42.8 °F 38.0 °F 41.0 °F 93% 29.69 in 6.2 mi West 8.1 mph - N/A   Overcast
4:16 AM 42.8 °F 38.0 °F 41.0 °F 93% 29.69 in 6.2 mi West 8.1 mph - N/A   Light Drizzle
4:58 AM 43.0 °F 38.2 °F 41.0 °F 93% 29.73 in 6.2 mi West 8.1 mph 18.4 mph 0.01 in Rain Light Rain
5:54 AM 42.8 °F 37.0 °F 41.0 °F 93% 29.70 in 6.2 mi West 10.4 mph - N/A   Overcast
5:58 AM 42.8 °F 38.0 °F 41.0 °F 93% 29.74 in 6.2 mi West 8.1 mph - 0.00 in   Overcast
5:59 AM 42.8 °F 38.0 °F 41.0 °F 93% 29.71 in 6.2 mi West 8.1 mph - N/A Rain Light Rain
6:16 AM 42.8 °F 38.6 °F 41.0 °F 93% 29.71 in 6.2 mi Variable 6.9 mph - N/A Rain Light Rain
6:44 AM 42.8 °F 38.6 °F 41.0 °F 93% 29.72 in 6.2 mi West 6.9 mph - N/A   Overcast
6:58 AM 43.0 °F 38.8 °F 41.2 °F 93% 29.76 in 6.2 mi West 6.9 mph - 0.01 in   Overcast
7:25 AM 42.8 °F 38.6 °F 41.0 °F 93% 29.72 in 6.2 mi West 6.9 mph - N/A Rain Light Rain
7:29 AM 42.8 °F 37.5 °F 41.0 °F 93% 29.72 in 6.2 mi West 9.2 mph - N/A Rain Light Rain
7:30 AM 42.8 °F 38.0 °F 41.0 °F 93% 29.72 in 6.2 mi West 8.1 mph - N/A Rain Light Rain
7:58 AM 43.3 °F 38.1 °F 41.7 °F 94% 29.76 in 6.2 mi WSW 9.2 mph - 0.03 in Rain Light Rain
8:32 AM 42.8 °F 38.0 °F 42.8 °F 100% 29.73 in 6.2 mi West 8.1 mph - N/A Rain Light Rain
8:58 AM 43.9 °F 39.9 °F 42.3 °F 94% 29.77 in 6.2 mi West 6.9 mph - 0.08 in Rain Light Rain
9:35 AM 44.6 °F 40.7 °F 42.8 °F 93% 29.75 in 6.2 mi West 6.9 mph - N/A Rain Light Rain
9:48 AM 44.6 °F 40.2 °F 42.8 °F 93% 29.75 in 6.2 mi West 8.1 mph - N/A Rain Light Rain
9:58 AM 44.4 °F 40.0 °F 42.3 °F 92% 29.78 in 6.2 mi West 8.1 mph - 0.02 in Rain Light Rain
10:48 AM 44.6 °F 39.2 °F 42.8 °F 93% 29.76 in 6.2 mi West 10.4 mph - N/A   Overcast
10:58 AM 45.3 °F 40.1 °F 42.8 °F 91% 29.79 in 6.2 mi West 10.4 mph - 0.00 in   Overcast
11:51 AM 44.6 °F 39.7 °F 42.8 °F 93% 29.78 in 6.2 mi West 9.2 mph - N/A Rain Light Rain
11:58 AM 45.1 °F 41.4 °F 42.4 °F 90% 29.81 in 6.2 mi West 6.9 mph - 0.00 in Rain Light Rain
12:31 PM 44.6 °F 41.4 °F 42.8 °F 93% 29.79 in 6.2 mi West 5.8 mph - N/A Rain Light Rain
12:32 PM 44.6 °F 41.4 °F 42.8 °F 93% 29.79 in 6.2 mi Variable 5.8 mph - N/A Rain Light Rain
12:37 PM 44.6 °F 42.2 °F 42.8 °F 93% 29.79 in 6.2 mi West 4.6 mph - N/A Rain Light Rain
12:46 PM 44.6 °F 40.7 °F 42.8 °F 93% 29.79 in 6.2 mi West 6.9 mph - N/A Rain Light Rain
12:47 PM 44.6 °F 40.7 °F 42.8 °F 93% 29.79 in 6.2 mi West 6.9 mph - N/A Rain Light Rain
12:48 PM 44.6 °F 40.7 °F 42.8 °F 93% 29.79 in 6.2 mi West 6.9 mph - N/A Rain Light Rain
12:55 PM 44.6 °F 41.4 °F 42.8 °F 93% 29.79 in 6.2 mi West 5.8 mph - N/A Rain Light Rain
12:56 PM 44.6 °F 41.4 °F 42.8 °F 93% 29.79 in 6.2 mi West 5.8 mph - N/A Rain Light Rain
12:58 PM 45.3 °F 41.6 °F 43.7 °F 94% 29.83 in 6.2 mi Variable 6.9 mph - 0.05 in Rain Light Rain
1:20 PM 46.4 °F 43.5 °F 44.6 °F 93% 29.79 in 6.2 mi Variable 5.8 mph - N/A Rain Light Rain
1:21 PM 46.4 °F 43.5 °F 44.6 °F 93% 29.79 in 6.2 mi WSW 5.8 mph - N/A Rain Light Rain
1:22 PM 46.4 °F 42.9 °F 44.6 °F 93% 29.79 in 6.2 mi WSW 6.9 mph - N/A   Light Drizzle
1:25 PM 46.4 °F 43.5 °F 44.6 °F 93% 29.80 in 6.2 mi Variable 5.8 mph - N/A   Overcast
1:37 PM 44.6 °F 40.7 °F 44.6 °F 100% 29.80 in 6.2 mi WSW 6.9 mph - N/A   Light Drizzle
1:46 PM 46.4 °F 44.3 °F 44.6 °F 93% 29.80 in 6.2 mi Variable 4.6 mph - N/A   Overcast
1:49 PM 46.4 °F 42.9 °F 44.6 °F 93% 29.80 in 6.2 mi West 6.9 mph - N/A   Overcast
1:58 PM 45.7 °F 42.7 °F 44.1 °F 94% 29.83 in 6.2 mi West 5.8 mph - 0.01 in   Overcast
2:10 PM 46.4 °F 44.3 °F 44.6 °F 93% 29.80 in 6.2 mi WSW 4.6 mph - N/A   Overcast
2:17 PM 46.4 °F 43.5 °F 44.6 °F 93% 29.80 in 6.2 mi Variable 5.8 mph - N/A   Overcast
2:58 PM 46.8 °F - 44.2 °F 91% 29.84 in 6.2 mi West 6.9 mph - N/A   Overcast
3:22 PM 46.4 °F 42.9 °F 44.6 °F 93% 29.82 in 6.2 mi West 6.9 mph - N/A   Light Drizzle
3:58 PM 47.5 °F - 45.3 °F 92% 29.85 in 6.2 mi West 5.8 mph - 0.01 in Rain Light Rain
4:22 PM 48.2 °F - 44.6 °F 87% 29.82 in 6.2 mi West 5.8 mph - N/A   Overcast
4:35 PM 48.2 °F - 44.6 °F 87% 29.82 in 6.2 mi WNW 5.8 mph - N/A   Light Drizzle
4:40 PM 48.2 °F - 44.6 °F 87% 29.82 in 6.2 mi West 4.6 mph - N/A Rain Light Rain
4:49 PM 48.2 °F - 44.6 °F 87% 29.82 in 6.2 mi WNW 5.8 mph - N/A Rain Light Rain
4:51 PM 48.2 °F - 46.4 °F 93% 29.82 in 6.2 mi West 5.8 mph - N/A Rain Light Rain
4:52 PM 48.2 °F - 46.4 °F 93% 29.82 in 6.2 mi West 5.8 mph - N/A Rain Light Rain
4:54 PM 48.2 °F - 46.4 °F 93% 29.82 in 6.2 mi WNW 6.9 mph - N/A Rain Rain
4:57 PM 48.2 °F - 44.6 °F 87% 29.82 in 5.6 mi WNW 5.8 mph - N/A Rain Light Rain
4:58 PM 48.0 °F - 45.5 °F 91% 29.85 in 5.6 mi West 5.8 mph - 0.01 in Rain Light Rain
5:22 PM 48.2 °F - 46.4 °F 93% 29.82 in 6.2 mi Variable 3.5 mph - N/A Rain Light Rain
5:23 PM 48.2 °F - 46.4 °F 93% 29.82 in 6.2 mi NW 3.5 mph - N/A Rain Light Rain
5:32 PM 48.2 °F - 46.4 °F 93% 29.82 in 6.2 mi West 4.6 mph - N/A Rain Light Rain
5:45 PM 48.2 °F - 46.4 °F 93% 29.82 in 6.2 mi WNW 3.5 mph - N/A Rain Light Rain
5:56 PM 48.2 °F - 46.4 °F 93% 29.82 in 6.2 mi WNW 3.5 mph - N/A Rain Light Rain
5:58 PM 48.4 °F - 46.2 °F 92% 29.85 in 6.2 mi WNW 4.6 mph - 0.04 in Rain Light Rain
7:58 PM 48.6 °F - 47.1 °F 95% 29.84 in 6.2 mi SW 2.3 mph - N/A   Overcast
8:01 PM 48.2 °F - 46.4 °F 93% 29.81 in 6.2 mi WSW 3.5 mph - N/A   Overcast
8:05 PM 48.2 °F - 46.4 °F 93% 29.81 in 6.2 mi WSW 2.3 mph - N/A   Overcast
8:13 PM 48.2 °F - 46.4 °F 93% 29.81 in 6.2 mi WSW 2.3 mph - N/A   Overcast
8:14 PM 48.2 °F - 46.4 °F 93% 29.81 in 6.2 mi WSW 2.3 mph - N/A   Overcast
8:24 PM 48.2 °F - 46.4 °F 93% 29.81 in 6.2 mi West 2.3 mph - N/A   Overcast
9:58 PM 47.7 °F - 47.1 °F 98% 29.84 in 6.2 mi Calm Calm - N/A   Overcast
10:00 PM 48.2 °F - 46.4 °F 93% 29.82 in 6.2 mi Calm Calm - N/A   Overcast
10:04 PM 48.2 °F - 46.4 °F 93% 29.81 in 6.2 mi Calm Calm - N/A   Overcast
10:09 PM 48.2 °F - 46.4 °F 93% 29.81 in 6.2 mi Calm Calm - N/A   Overcast
10:58 PM 47.7 °F - 47.1 °F 98% 29.84 in 5.6 mi South 2.3 mph - N/A   Overcast
11:09 PM 48.2 °F - 46.4 °F 93% 29.81 in 5.0 mi Calm Calm - N/A   Overcast
11:26 PM 46.4 °F - 46.4 °F 100% 29.81 in 5.6 mi SW 1.2 mph - N/A   Overcast
11:58 PM 47.5 °F - 47.1 °F 99% 29.84 in 5.0 mi Calm Calm - N/A   Overcast